• In Deutschland
  • Länderverzeichnis
  • Für 7 Tage
  • Wassertemperatur
  • Satellitenkarten
  • Wetterkarte
  • Widgets
  • user-avatar
    Anmelden

    Stündliche Wetter Kievka

    Heute, 12 November, Montag

    Zeit Temperatur Niederschläge Wind Luftdruck Luftfeuchtigkeit
    00:00 -4°C° 0 mm 8 m/S 766 mmHg 59%
    01:00 -4°C° 0 mm 8 m/S 766 mmHg 60%
    02:00 -4°C° 0 mm 9 m/S 766 mmHg 62%
    03:00 -4°C° 0 mm 7 m/S 766 mmHg 63%
    04:00 -5°C° 0 mm 8 m/S 766 mmHg 65%
    05:00 -5°C° 0 mm 8 m/S 766 mmHg 67%
    06:00 -6°C° 0 mm 9 m/S 766 mmHg 69%
    07:00 -6°C° 0 mm 9 m/S 766 mmHg 68%
    08:00 -6°C° 0 mm 9 m/S 766 mmHg 68%
    09:00 -6°C° 0 mm 9 m/S 767 mmHg 66%
    10:00 -6°C° 0.1 mm 9 m/S 767 mmHg 65%
    11:00 -5°C° 0.1 mm 9 m/S 767 mmHg 63%
    12:00 -5°C° 0.1 mm 9 m/S 767 mmHg 61%
    13:00 -5°C° 0.1 mm 10 m/S 767 mmHg 63%
    14:00 -4°C° 0.1 mm 10 m/S 766 mmHg 65%
    15:00 -4°C° 0 mm 7 m/S 766 mmHg 58%
    16:00 -4°C° 0.1 mm 7 m/S 766 mmHg 63%
    17:00 -5°C° 0.1 mm 8 m/S 766 mmHg 69%
    18:00 -6°C° 0.1 mm 9 m/S 766 mmHg 74%
    19:00 -5°C° 0.2 mm 9 m/S 766 mmHg 76%
    20:00 -5°C° 0.2 mm 9 m/S 766 mmHg 78%
    21:00 -5°C° 0.2 mm 9 m/S 766 mmHg 80%
    22:00 -5°C° 0.4 mm 9 m/S 765 mmHg 82%
    23:00 -5°C° 0.4 mm 9 m/S 765 mmHg 85%

    Morgen, 13 November, Dienstag

    Zeit Temperatur Niederschläge Wind Luftdruck Luftfeuchtigkeit
    00:00 -5°C° 0.4 mm 9 m/S 765 mmHg 87%
    01:00 -4°C° 0.5 mm 9 m/S 764 mmHg 88%
    02:00 -3°C° 0.5 mm 9 m/S 764 mmHg 89%
    03:00 -3°C° 0.5 mm 9 m/S 764 mmHg 90%
    04:00 -2°C° 0.4 mm 10 m/S 764 mmHg 90%
    05:00 -2°C° 0.4 mm 10 m/S 763 mmHg 89%
    06:00 -2°C° 0.4 mm 10 m/S 763 mmHg 88%
    07:00 -2°C° 0.4 mm 11 m/S 763 mmHg 88%
    08:00 -2°C° 0.4 mm 11 m/S 764 mmHg 88%
    09:00 -2°C° 0.4 mm 11 m/S 764 mmHg 87%
    10:00 -1°C° 0.3 mm 11 m/S 764 mmHg 87%
    11:00 -1°C° 0.3 mm 11 m/S 764 mmHg 87%
    12:00 -1°C° 0.3 mm 11 m/S 764 mmHg 86%
    13:00 0°C° 0 mm 10 m/S 764 mmHg 85%
    14:00 0°C° 0 mm 10 m/S 764 mmHg 83%
    15:00 0°C° 0 mm 10 m/S 764 mmHg 82%
    16:00 0°C° 0 mm 10 m/S 764 mmHg 81%
    17:00 0°C° 0 mm 9 m/S 765 mmHg 80%
    18:00 0°C° 0 mm 9 m/S 765 mmHg 79%
    19:00 0°C° 0 mm 9 m/S 765 mmHg 79%
    20:00 -1°C° 0 mm 9 m/S 765 mmHg 79%
    21:00 -1°C° 0 mm 9 m/S 765 mmHg 79%
    22:00 -1°C° 0 mm 9 m/S 765 mmHg 79%
    23:00 -1°C° 0 mm 9 m/S 765 mmHg 79%

    übermorgen, 14 November, Mittwoch

    Zeit Temperatur Niederschläge Wind Luftdruck Luftfeuchtigkeit
    00:00 -1°C° 0 mm 8 m/S 765 mmHg 80%
    01:00 -1°C° 0 mm 8 m/S 765 mmHg 80%
    02:00 -1°C° 0 mm 8 m/S 764 mmHg 80%
    03:00 -1°C° 0 mm 8 m/S 764 mmHg 80%
    04:00 -1°C° 0 mm 8 m/S 764 mmHg 80%
    05:00 -1°C° 0 mm 8 m/S 764 mmHg 81%
    06:00 -2°C° 0 mm 8 m/S 764 mmHg 81%
    07:00 -1°C° 0 mm 8 m/S 764 mmHg 79%
    08:00 -1°C° 0 mm 8 m/S 764 mmHg 78%
    09:00 -1°C° 0 mm 9 m/S 764 mmHg 77%
    10:00 0°C° 0 mm 9 m/S 763 mmHg 74%
    11:00 +1°C° 0 mm 8 m/S 763 mmHg 71%
    12:00 +2°C° 0 mm 8 m/S 763 mmHg 67%
    13:00 +2°C° 0 mm 8 m/S 762 mmHg 65%
    14:00 +2°C° 0 mm 8 m/S 762 mmHg 64%
    15:00 +2°C° 0 mm 8 m/S 762 mmHg 62%
    16:00 +3°C° 0 mm 7 m/S 762 mmHg 64%
    17:00 +2°C° 0 mm 7 m/S 762 mmHg 67%
    18:00 0°C° 0 mm 7 m/S 761 mmHg 69%
    19:00 0°C° 0 mm 7 m/S 761 mmHg 70%
    20:00 -1°C° 0 mm 7 m/S 761 mmHg 71%
    21:00 -1°C° 0 mm 7 m/S 761 mmHg 73%
    22:00 -1°C° 0 mm 7 m/S 761 mmHg 75%
    23:00 -1°C° 0 mm 7 m/S 761 mmHg 78%

    15 November, Donnerstag

    Zeit Temperatur Niederschläge Wind Luftdruck Luftfeuchtigkeit
    00:00 -2°C° 0 mm 7 m/S 760 mmHg 80%
    01:00 -2°C° 0 mm 8 m/S 760 mmHg 81%
    02:00 -2°C° 0 mm 8 m/S 760 mmHg 81%
    03:00 -2°C° 0 mm 8 m/S 760 mmHg 82%
    04:00 -2°C° 0 mm 8 m/S 760 mmHg 82%
    05:00 -2°C° 0 mm 8 m/S 760 mmHg 83%
    06:00 -2°C° 0 mm 8 m/S 759 mmHg 83%
    07:00 -3°C° 0 mm 9 m/S 760 mmHg 80%
    08:00 -1°C° 0 mm 9 m/S 760 mmHg 77%
    09:00 -1°C° 0 mm 9 m/S 760 mmHg 75%
    10:00 0°C° 0 mm 9 m/S 760 mmHg 70%
    11:00 +1°C° 0 mm 9 m/S 760 mmHg 65%
    12:00 +2°C° 0 mm 9 m/S 760 mmHg 60%
    13:00 +3°C° 0 mm 9 m/S 759 mmHg 58%
    14:00 +3°C° 0 mm 9 m/S 759 mmHg 56%
    15:00 +3°C° 0 mm 9 m/S 759 mmHg 53%
    16:00 +4°C° 0.1 mm 8 m/S 759 mmHg 55%
    17:00 +2°C° 0.1 mm 8 m/S 759 mmHg 56%
    18:00 +2°C° 0.1 mm 8 m/S 759 mmHg 57%
    19:00 +2°C° 0.4 mm 8 m/S 760 mmHg 61%
    20:00 +2°C° 0.4 mm 8 m/S 760 mmHg 64%
    21:00 +1°C° 0.4 mm 8 m/S 760 mmHg 68%
    22:00 +1°C° 0.3 mm 9 m/S 760 mmHg 70%
    23:00 +1°C° 0.3 mm 9 m/S 760 mmHg 73%

    16 November, Freitag

    Zeit Temperatur Niederschläge Wind Luftdruck Luftfeuchtigkeit
    00:00 +1°C° 0.3 mm 9 m/S 760 mmHg 76%
    01:00 +1°C° 0.2 mm 9 m/S 760 mmHg 76%
    02:00 +1°C° 0.2 mm 9 m/S 760 mmHg 77%
    03:00 +1°C° 0.2 mm 9 m/S 760 mmHg 78%
    04:00 +1°C° 0.1 mm 8 m/S 760 mmHg 78%
    05:00 +1°C° 0.1 mm 8 m/S 760 mmHg 79%
    06:00 +1°C° 0.1 mm 8 m/S 760 mmHg 79%
    07:00 +1°C° 0 mm 8 m/S 761 mmHg 79%
    08:00 +1°C° 0 mm 8 m/S 761 mmHg 78%
    09:00 +2°C° 0 mm 8 m/S 761 mmHg 78%
    10:00 +2°C° 0 mm 8 m/S 761 mmHg 76%
    11:00 +2°C° 0 mm 8 m/S 761 mmHg 74%
    12:00 +2°C° 0 mm 8 m/S 761 mmHg 72%
    13:00 +2°C° 0 mm 8 m/S 761 mmHg 71%
    14:00 +2°C° 0 mm 8 m/S 761 mmHg 71%
    15:00 +2°C° 0 mm 8 m/S 761 mmHg 70%
    16:00 +2°C° 0 mm 8 m/S 761 mmHg 70%
    17:00 +2°C° 0 mm 8 m/S 761 mmHg 71%
    18:00 +2°C° 0 mm 8 m/S 761 mmHg 71%
    19:00 +2°C° 0 mm 8 m/S 762 mmHg 71%
    20:00 +3°C° 0 mm 7 m/S 762 mmHg 71%
    21:00 +3°C° 0 mm 7 m/S 762 mmHg 72%
    22:00 +2°C° 0.1 mm 7 m/S 762 mmHg 73%
    23:00 +1°C° 0.1 mm 8 m/S 761 mmHg 74%

    17 November, Samstag

    Zeit Temperatur Niederschläge Wind Luftdruck Luftfeuchtigkeit
    00:00 +1°C° 0.1 mm 8 m/S 761 mmHg 75%
    01:00 +1°C° 0 mm 8 m/S 761 mmHg 75%
    02:00 0°C° 0 mm 8 m/S 761 mmHg 75%
    03:00 0°C° 0 mm 8 m/S 761 mmHg 75%
    04:00 0°C° 0 mm 8 m/S 761 mmHg 73%
    05:00 0°C° 0 mm 7 m/S 760 mmHg 71%
    06:00 -1°C° 0 mm 7 m/S 760 mmHg 70%
    07:00 -1°C° 0 mm 7 m/S 760 mmHg 68%
    08:00 0°C° 0 mm 7 m/S 760 mmHg 67%
    09:00 0°C° 0 mm 7 m/S 761 mmHg 66%
    10:00 0°C° 0 mm 7 m/S 760 mmHg 64%
    11:00 0°C° 0 mm 7 m/S 760 mmHg 63%
    12:00 +2°C° 0 mm 7 m/S 760 mmHg 62%
    13:00 +2°C° 0 mm 7 m/S 760 mmHg 61%
    14:00 +2°C° 0 mm 7 m/S 760 mmHg 60%
    15:00 +2°C° 0 mm 7 m/S 760 mmHg 59%
    16:00 +2°C° 0.1 mm 6 m/S 760 mmHg 59%
    17:00 +2°C° 0.1 mm 6 m/S 760 mmHg 59%
    18:00 +1°C° 0.1 mm 5 m/S 760 mmHg 58%
    19:00 +1°C° 0.1 mm 5 m/S 760 mmHg 59%
    20:00 +1°C° 0.1 mm 5 m/S 760 mmHg 59%
    21:00 +1°C° 0.1 mm 4 m/S 760 mmHg 59%
    22:00 0°C° 0.2 mm 4 m/S 760 mmHg 61%
    23:00 0°C° 0.2 mm 4 m/S 760 mmHg 62%
    Mehr zeigen